| time (UTC) | temp F | wind direction | speed MPH | gust MPH | rain 1hr in | rain 24hr in | rain mn in | humidity % | barometer mb |
| 20260901031558 | 72 | 0 | 0.0 | 1.0 | 0.00 | 0.00 | 0.00 | 53 | 1007.9 |
| 20260901031039 | 73 | 0 | 0.0 | 0.0 | 0.00 | 0.00 | 0.00 | 53 | 1007.9 |
| 20260901030539 | 73 | 0 | 0.0 | 1.0 | 0.00 | 0.00 | 0.00 | 52 | 1007.8 |
| 20260901030055 | 74 | 0 | 0.0 | 1.0 | 0.00 | 0.00 | 0.00 | 52 | 1007.8 |
| 20260901025542 | 74 | 0 | 0.0 | 1.0 | 0.00 | 0.00 | 0.00 | 50 | 1007.9 |
| 20260901025039 | 75 | 207 | 0.0 | 1.0 | 0.00 | 0.00 | 0.00 | 49 | 1007.8 |
| 20260901024555 | 75 | 0 | 0.0 | 1.0 | 0.00 | 0.00 | 0.00 | 49 | 1007.8 |
| 20260901024043 | 75 | 207 | 0.0 | 1.0 | 0.00 | 0.00 | 0.00 | 48 | 1007.8 |
| 20260901023539 | 76 | 0 | 0.0 | 0.0 | 0.00 | 0.00 | 0.00 | 47 | 1007.9 |
| 20260901023052 | 76 | 0 | 0.0 | 1.0 | 0.00 | 0.00 | 0.00 | 47 | 1007.9 |
| 20260901022539 | 76 | 0 | 0.0 | 1.0 | 0.00 | 0.00 | 0.00 | 46 | 1007.9 |
| 20260901022039 | 77 | 0 | 0.0 | 1.0 | 0.00 | 0.00 | 0.00 | 46 | 1007.8 |
| 20260901021558 | 77 | 0 | 0.0 | 1.0 | 0.00 | 0.00 | 0.00 | 46 | 1007.9 |
| 20260901021039 | 77 | 0 | 0.0 | 2.0 | 0.00 | 0.00 | 0.00 | 45 | 1007.9 |
| 20260901020541 | 78 | 0 | 0.0 | 3.0 | 0.00 | 0.00 | 0.00 | 45 | 1007.9 |
| 20260901020056 | 78 | 207 | 1.0 | 3.0 | 0.00 | 0.00 | 0.00 | 45 | 1007.9 |
| 20260901015538 | 78 | 181 | 1.0 | 3.0 | 0.00 | 0.00 | 0.00 | 44 | 1007.9 |
| 20260901015041 | 78 | 0 | 0.0 | 3.0 | 0.00 | 0.00 | 0.00 | 44 | 1007.9 |
| 20260901014605 | 79 | 228 | 0.0 | 3.0 | 0.00 | 0.00 | 0.00 | 43 | 1007.9 |
| 20260901014038 | 79 | 192 | 0.0 | 3.0 | 0.00 | 0.00 | 0.00 | 43 | 1007.9 |
| 20260901013538 | 79 | 195 | 1.0 | 4.0 | 0.00 | 0.00 | 0.00 | 43 | 1007.9 |
| 20260901013100 | 79 | 0 | 0.0 | 4.0 | 0.00 | 0.00 | 0.00 | 41 | 1007.9 |
| 20260901012538 | 79 | 189 | 0.0 | 3.0 | 0.00 | 0.00 | 0.00 | 42 | 1007.9 |
| 20260901012039 | 79 | 0 | 0.0 | 2.0 | 0.00 | 0.00 | 0.00 | 45 | 1008.0 |
| 20260901011559 | 79 | 0 | 0.0 | 4.0 | 0.00 | 0.00 | 0.00 | 44 | 1008.1 |
| 20260901011042 | 80 | 0 | 0.0 | 5.0 | 0.00 | 0.00 | 0.00 | 43 | 1008.0 |
| 20260901010541 | 80 | 188 | 2.0 | 5.0 | 0.00 | 0.00 | 0.00 | 42 | 1008.0 |
| 20260901005541 | 80 | 173 | 1.0 | 7.0 | 0.00 | 0.00 | 0.00 | 43 | 1008.0 |
| 20260901005039 | 80 | 226 | 1.0 | 7.0 | 0.00 | 0.00 | 0.00 | 42 | 1008.1 |
| 20260901004600 | 80 | 177 | 2.0 | 6.0 | 0.00 | 0.00 | 0.00 | 43 | 1008.1 |
| 20260901004040 | 80 | 121 | 0.0 | 5.0 | 0.00 | 0.00 | 0.00 | 44 | 1008.1 |
| 20260901003540 | 80 | 0 | 1.0 | 6.0 | 0.00 | 0.00 | 0.00 | 43 | 1008.1 |
| 20260901003103 | 81 | 0 | 0.0 | 6.0 | 0.00 | 0.00 | 0.00 | 43 | 1008.1 |
| 20260901002541 | 81 | 184 | 2.0 | 5.0 | 0.00 | 0.00 | 0.00 | 43 | 1008.0 |
| 20260901002038 | 81 | 223 | 2.0 | 4.0 | 0.00 | 0.00 | 0.00 | 42 | 1008.0 |
| 20260901001601 | 81 | 195 | 1.0 | 5.0 | 0.00 | 0.00 | 0.00 | 42 | 1008.1 |
| 20260901001041 | 81 | 178 | 1.0 | 6.0 | 0.00 | 0.00 | 0.00 | 43 | 1008.1 |
| 20260901000545 | 81 | 171 | 3.0 | 6.0 | 0.00 | 0.00 | 0.00 | 42 | 1008.1 |
| 20260901000057 | 81 | 0 | 1.0 | 3.0 | 0.00 | 0.00 | 0.00 | 44 | 1008.0 |
| 20260831235541 | 81 | 233 | 1.0 | 3.0 | 0.00 | 0.00 | 0.00 | 44 | 1008.1 |
| 20260831235039 | 81 | 184 | 1.0 | 7.0 | 0.00 | 0.00 | 0.00 | 43 | 1008.2 |
| 20260831234605 | 81 | 181 | 1.0 | 7.0 | 0.00 | 0.00 | 0.00 | 43 | 1008.2 |
| 20260831234039 | 81 | 167 | 3.0 | 5.0 | 0.00 | 0.00 | 0.00 | 42 | 1008.2 |
| 20260831233543 | 81 | 323 | 2.0 | 5.0 | 0.00 | 0.00 | 0.00 | 43 | 1008.2 |
| 20260831233053 | 81 | 85 | 0.0 | 4.0 | 0.00 | 0.00 | 0.00 | 45 | 1008.2 |
| 20260831232539 | 81 | 0 | 0.0 | 6.0 | 0.00 | 0.00 | 0.00 | 45 | 1008.1 |
| 20260831232038 | 81 | 0 | 0.0 | 7.0 | 0.00 | 0.00 | 0.00 | 44 | 1008.1 |
| 20260831231557 | 82 | 223 | 3.0 | 7.0 | 0.00 | 0.00 | 0.00 | 43 | 1008.1 |
| 20260831231039 | 82 | 146 | 2.0 | 5.0 | 0.00 | 0.00 | 0.00 | 43 | 1008.1 |
| 20260831230541 | 82 | 186 | 1.0 | 6.0 | 0.00 | 0.00 | 0.00 | 43 | 1008.0 |
| 20260831230108 | 82 | 178 | 1.0 | 6.0 | 0.00 | 0.00 | 0.00 | 44 | 1008.1 |
| 20260831225544 | 83 | 146 | 2.0 | 6.0 | 0.00 | 0.00 | 0.00 | 41 | 1008.2 |
| 20260831225040 | 83 | 160 | 1.0 | 7.0 | 0.00 | 0.00 | 0.00 | 42 | 1008.1 |
| 20260831224555 | 83 | 215 | 1.0 | 7.0 | 0.00 | 0.00 | 0.00 | 42 | 1008.2 |
| 20260831224039 | 83 | 182 | 2.0 | 7.0 | 0.00 | 0.00 | 0.00 | 41 | 1008.2 |
| 20260831223539 | 83 | 230 | 3.0 | 7.0 | 0.00 | 0.00 | 0.00 | 42 | 1008.2 |
| 20260831223058 | 83 | 242 | 2.0 | 5.0 | 0.00 | 0.00 | 0.00 | 41 | 1008.3 |
| 20260831222538 | 84 | 360 | 2.0 | 4.0 | 0.00 | 0.00 | 0.00 | 41 | 1008.3 |
| 20260831222042 | 84 | 160 | 1.0 | 3.0 | 0.00 | 0.00 | 0.00 | 39 | 1008.3 |
| 20260831221601 | 84 | 320 | 0.0 | 3.0 | 0.00 | 0.00 | 0.00 | 41 | 1008.3 |
| 20260831221040 | 83 | 10 | 0.0 | 3.0 | 0.00 | 0.00 | 0.00 | 41 | 1008.6 |
| 20260831220539 | 81 | 97 | 1.0 | 3.0 | 0.00 | 0.00 | 0.00 | 44 | 1008.6 |
| 20260831220112 | 80 | 141 | 0.0 | 6.0 | 0.00 | 0.00 | 0.00 | 42 | 1008.6 |
| 20260831215544 | 80 | 235 | 2.0 | 6.0 | 0.00 | 0.00 | 0.00 | 43 | 1008.6 |
| 20260831215040 | 80 | 179 | 3.0 | 7.0 | 0.00 | 0.00 | 0.00 | 43 | 1008.6 |
| 20260831214600 | 80 | 157 | 2.0 | 7.0 | 0.00 | 0.00 | 0.00 | 43 | 1008.6 |
| 20260831214042 | 80 | 157 | 1.0 | 6.0 | 0.00 | 0.00 | 0.00 | 45 | 1008.7 |
| 20260831213538 | 80 | 165 | 1.0 | 6.0 | 0.00 | 0.00 | 0.00 | 45 | 1008.8 |
| 20260831213054 | 80 | 173 | 3.0 | 7.0 | 0.00 | 0.00 | 0.00 | 43 | 1008.8 |
| 20260831212543 | 80 | 194 | 2.0 | 7.0 | 0.00 | 0.00 | 0.00 | 44 | 1008.7 |
| 20260831212040 | 80 | 16 | 1.0 | 7.0 | 0.00 | 0.00 | 0.00 | 45 | 1008.8 |
| 20260831211555 | 80 | 184 | 3.0 | 8.0 | 0.00 | 0.00 | 0.00 | 45 | 1008.8 |
| 20260831211039 | 81 | 166 | 1.0 | 8.0 | 0.00 | 0.00 | 0.00 | 44 | 1009.0 |
| 20260831210541 | 82 | 178 | 1.0 | 7.0 | 0.00 | 0.00 | 0.00 | 44 | 1009.0 |
| 20260831210100 | 83 | 180 | 2.0 | 7.0 | 0.00 | 0.00 | 0.00 | 42 | 1009.1 |
| 20260831205539 | 83 | 183 | 0.0 | 3.0 | 0.00 | 0.00 | 0.00 | 43 | 1009.1 |
| 20260831205041 | 83 | 217 | 1.0 | 3.0 | 0.00 | 0.00 | 0.00 | 43 | 1009.1 |
| 20260831204601 | 83 | 0 | 0.0 | 3.0 | 0.00 | 0.00 | 0.00 | 45 | 1009.0 |
| 20260831204040 | 83 | 153 | 1.0 | 5.0 | 0.00 | 0.00 | 0.00 | 44 | 1009.0 |
| 20260831203538 | 82 | 292 | 1.0 | 5.0 | 0.00 | 0.00 | 0.00 | 46 | 1009.1 |
| 20260831203116 | 82 | 55 | 2.0 | 5.0 | 0.00 | 0.00 | 0.00 | 48 | 1009.1 |
| 20260831202538 | 81 | 159 | 1.0 | 7.0 | 0.00 | 0.00 | 0.00 | 47 | 1009.1 |
| 20260831202039 | 81 | 161 | 1.0 | 7.0 | 0.00 | 0.00 | 0.00 | 47 | 1009.1 |
| 20260831201554 | 82 | 107 | 0.0 | 4.0 | 0.00 | 0.00 | 0.00 | 45 | 1009.2 |
| 20260831201038 | 82 | 98 | 1.0 | 5.0 | 0.00 | 0.00 | 0.00 | 46 | 1009.1 |
| 20260831200539 | 81 | 31 | 1.0 | 5.0 | 0.00 | 0.00 | 0.00 | 48 | 1009.2 |
| 20260831200057 | 80 | 13 | 1.0 | 3.0 | 0.00 | 0.00 | 0.00 | 46 | 1009.2 |
| 20260831195539 | 79 | 94 | 0.0 | 4.0 | 0.00 | 0.00 | 0.00 | 48 | 1009.3 |
| 20260831195038 | 80 | 78 | 1.0 | 6.0 | 0.00 | 0.00 | 0.00 | 50 | 1009.4 |
| 20260831194611 | 79 | 93 | 1.0 | 6.0 | 0.00 | 0.00 | 0.00 | 51 | 1009.5 |
| 20260831194039 | 79 | 211 | 0.0 | 4.0 | 0.00 | 0.00 | 0.00 | 49 | 1009.6 |
| 20260831193541 | 78 | 109 | 0.0 | 4.0 | 0.00 | 0.00 | 0.00 | 46 | 1009.7 |
| 20260831193102 | 79 | 157 | 2.0 | 4.0 | 0.00 | 0.00 | 0.00 | 45 | 1009.7 |
| 20260831192538 | 79 | 292 | 2.0 | 4.0 | 0.00 | 0.00 | 0.00 | 45 | 1009.8 |
| 20260831192041 | 78 | 40 | 1.0 | 4.0 | 0.00 | 0.00 | 0.00 | 49 | 1009.8 |
| 20260831191600 | 77 | 0 | 1.0 | 4.0 | 0.00 | 0.00 | 0.00 | 48 | 1009.9 |
| 20260831191041 | 77 | 108 | 2.0 | 5.0 | 0.00 | 0.00 | 0.00 | 49 | 1010.0 |
| 20260831190540 | 77 | 193 | 3.0 | 5.0 | 0.00 | 0.00 | 0.00 | 50 | 1010.1 |
| 20260831190132 | 76 | 86 | 0.0 | 4.0 | 0.00 | 0.00 | 0.00 | 52 | 1010.2 |
| 20260831185541 | 75 | 117 | 1.0 | 4.0 | 0.00 | 0.00 | 0.00 | 55 | 1010.2 |
| 20260831185043 | 74 | 184 | 1.0 | 3.0 | 0.00 | 0.00 | 0.00 | 53 | 1010.3 |
| 20260831184553 | 73 | 0 | 0.0 | 4.0 | 0.00 | 0.00 | 0.00 | 55 | 1010.3 |
| 20260831184041 | 73 | 188 | 0.0 | 4.0 | 0.00 | 0.00 | 0.00 | 56 | 1010.4 |
| 20260831183545 | 73 | 209 | 1.0 | 3.0 | 0.00 | 0.00 | 0.00 | 56 | 1010.6 |
| 20260831183103 | 73 | 197 | 1.0 | 4.0 | 0.00 | 0.00 | 0.00 | 55 | 1010.7 |
| 20260831182543 | 73 | 0 | 1.0 | 4.0 | 0.00 | 0.00 | 0.00 | 57 | 1010.8 |
| 20260831182042 | 73 | 0 | 1.0 | 4.0 | 0.00 | 0.00 | 0.00 | 59 | 1010.9 |
| 20260831181603 | 72 | 68 | 1.0 | 4.0 | 0.00 | 0.00 | 0.00 | 62 | 1010.9 |
| 20260831181040 | 71 | 186 | 1.0 | 4.0 | 0.00 | 0.00 | 0.00 | 59 | 1011.0 |
| 20260831180538 | 70 | 0 | 1.0 | 4.0 | 0.00 | 0.00 | 0.00 | 62 | 1011.1 |
| 20260831175538 | 68 | 161 | 1.0 | 4.0 | 0.00 | 0.00 | 0.00 | 66 | 1011.0 |
| 20260831175038 | 68 | 192 | 0.0 | 3.0 | 0.00 | 0.00 | 0.00 | 67 | 1011.1 |
| 20260831174604 | 67 | 191 | 1.0 | 4.0 | 0.00 | 0.00 | 0.00 | 67 | 1011.2 |
| 20260831174041 | 67 | 192 | 2.0 | 5.0 | 0.00 | 0.00 | 0.00 | 67 | 1011.2 |
| 20260831173541 | 66 | 0 | 2.0 | 5.0 | 0.00 | 0.00 | 0.00 | 69 | 1011.3 |
| 20260831173108 | 66 | 194 | 1.0 | 5.0 | 0.00 | 0.00 | 0.00 | 69 | 1011.3 |
| 20260831172542 | 65 | 146 | 2.0 | 5.0 | 0.00 | 0.00 | 0.00 | 69 | 1011.3 |
| 20260831172039 | 66 | 179 | 1.0 | 5.0 | 0.00 | 0.00 | 0.00 | 70 | 1011.4 |
| 20260831171558 | 65 | 178 | 1.0 | 5.0 | 0.00 | 0.00 | 0.00 | 71 | 1011.4 |
| 20260831171039 | 65 | 171 | 1.0 | 4.0 | 0.00 | 0.00 | 0.00 | 72 | 1011.5 |
| 20260831170539 | 64 | 0 | 1.0 | 5.0 | 0.00 | 0.00 | 0.00 | 73 | 1011.4 |
| 20260831170110 | 63 | 170 | 1.0 | 5.0 | 0.00 | 0.00 | 0.00 | 75 | 1011.5 |
| 20260831165538 | 62 | 0 | 1.0 | 4.0 | 0.00 | 0.00 | 0.00 | 77 | 1011.5 |
| 20260831165041 | 62 | 168 | 1.0 | 4.0 | 0.00 | 0.00 | 0.00 | 77 | 1011.5 |
| 20260831164605 | 62 | 0 | 0.0 | 4.0 | 0.00 | 0.00 | 0.00 | 77 | 1011.5 |
| 20260831164039 | 61 | 160 | 1.0 | 3.0 | 0.00 | 0.00 | 0.00 | 78 | 1011.6 |
| 20260831163539 | 60 | 153 | 0.0 | 3.0 | 0.00 | 0.00 | 0.00 | 80 | 1011.5 |
| 20260831163105 | 59 | 0 | 1.0 | 3.0 | 0.00 | 0.00 | 0.00 | 82 | 1011.5 |
| 20260831162538 | 58 | 152 | 1.0 | 3.0 | 0.00 | 0.00 | 0.00 | 83 | 1011.6 |
| 20260831162039 | 57 | 152 | 0.0 | 3.0 | 0.00 | 0.00 | 0.00 | 84 | 1011.6 |
| 20260831161608 | 56 | 111 | 1.0 | 3.0 | 0.00 | 0.00 | 0.00 | 84 | 1011.7 |
| 20260831161040 | 56 | 0 | 1.0 | 3.0 | 0.00 | 0.00 | 0.00 | 86 | 1011.8 |
| 20260831160544 | 55 | 0 | 0.0 | 0.0 | 0.00 | 0.00 | 0.00 | 87 | 1011.9 |
| 20260831160128 | 55 | 0 | 0.0 | 0.0 | 0.00 | 0.00 | 0.00 | 87 | 1011.9 |
| 20260831155539 | 54 | 0 | 0.0 | 0.0 | 0.00 | 0.00 | 0.00 | 88 | 1011.9 |
| 20260831155039 | 54 | 0 | 0.0 | 0.0 | 0.00 | 0.00 | 0.00 | 89 | 1011.9 |
| 20260831154622 | 53 | 0 | 0.0 | 0.0 | 0.00 | 0.00 | 0.00 | 89 | 1011.9 |
| 20260831154041 | 52 | 0 | 0.0 | 0.0 | 0.00 | 0.00 | 0.00 | 90 | 1011.9 |
| 20260831153539 | 52 | 0 | 0.0 | 0.0 | 0.00 | 0.00 | 0.00 | 90 | 1011.9 |
| 20260831153132 | 52 | 0 | 0.0 | 0.0 | 0.00 | 0.00 | 0.00 | 90 | 1012.0 |
| 20260831152538 | 51 | 0 | 0.0 | 0.0 | 0.00 | 0.00 | 0.00 | 90 | 1012.0 |
| 20260831152040 | 51 | 0 | 0.0 | 0.0 | 0.00 | 0.00 | 0.00 | 90 | 1012.0 |
| 20260831151606 | 50 | 0 | 0.0 | 0.0 | 0.00 | 0.00 | 0.00 | 90 | 1012.0 |
| 20260831151040 | 50 | 0 | 0.0 | 0.0 | 0.00 | 0.00 | 0.00 | 89 | 1012.1 |
| 20260831150544 | 50 | 0 | 0.0 | 0.0 | 0.00 | 0.00 | 0.00 | 90 | 1012.1 |
| 20260831150058 | 50 | 0 | 0.0 | 0.0 | 0.00 | 0.00 | 0.00 | 89 | 1012.1 |
| 20260831145538 | 49 | 0 | 0.0 | 0.0 | 0.00 | 0.00 | 0.00 | 89 | 1012.2 |
| 20260831145042 | 49 | 0 | 0.0 | 0.0 | 0.00 | 0.00 | 0.00 | 89 | 1012.3 |
| 20260831144555 | 49 | 0 | 0.0 | 0.0 | 0.00 | 0.00 | 0.00 | 89 | 1012.2 |
| 20260831144038 | 49 | 0 | 0.0 | 0.0 | 0.00 | 0.00 | 0.00 | 89 | 1012.3 |
| 20260831143539 | 49 | 0 | 0.0 | 0.0 | 0.00 | 0.00 | 0.00 | 89 | 1012.2 |
| 20260831143055 | 48 | 0 | 0.0 | 0.0 | 0.00 | 0.00 | 0.00 | 89 | 1012.2 |
| 20260831142538 | 48 | 0 | 0.0 | 0.0 | 0.00 | 0.00 | 0.00 | 88 | 1012.3 |
| 20260831142039 | 48 | 0 | 0.0 | 0.0 | 0.00 | 0.00 | 0.00 | 88 | 1012.3 |
| 20260831141604 | 48 | 0 | 0.0 | 0.0 | 0.00 | 0.00 | 0.00 | 88 | 1012.4 |
| 20260831141042 | 48 | 0 | 0.0 | 0.0 | 0.00 | 0.00 | 0.00 | 87 | 1012.3 |
| 20260831140539 | 48 | 0 | 0.0 | 0.0 | 0.00 | 0.00 | 0.00 | 88 | 1012.2 |
| 20260831140056 | 48 | 0 | 0.0 | 0.0 | 0.00 | 0.00 | 0.00 | 88 | 1012.2 |
| 20260831135539 | 49 | 0 | 0.0 | 0.0 | 0.00 | 0.00 | 0.00 | 88 | 1012.3 |
| 20260831135039 | 49 | 0 | 0.0 | 0.0 | 0.00 | 0.00 | 0.00 | 88 | 1012.3 |
| 20260831134605 | 49 | 0 | 0.0 | 0.0 | 0.00 | 0.00 | 0.00 | 87 | 1012.4 |
| 20260831134039 | 49 | 0 | 0.0 | 0.0 | 0.00 | 0.00 | 0.00 | 87 | 1012.4 |
| 20260831133538 | 49 | 0 | 0.0 | 0.0 | 0.00 | 0.00 | 0.00 | 87 | 1012.4 |
| 20260831133106 | 49 | 0 | 0.0 | 0.0 | 0.00 | 0.00 | 0.00 | 87 | 1012.3 |
| 20260831132538 | 49 | 0 | 0.0 | 0.0 | 0.00 | 0.00 | 0.00 | 87 | 1012.3 |
| 20260831132039 | 49 | 0 | 0.0 | 0.0 | 0.00 | 0.00 | 0.00 | 87 | 1012.4 |
| 20260831131606 | 49 | 0 | 0.0 | 0.0 | 0.00 | 0.00 | 0.00 | 87 | 1012.4 |
| 20260831131042 | 49 | 0 | 0.0 | 0.0 | 0.00 | 0.00 | 0.00 | 87 | 1012.5 |
| 20260831130539 | 49 | 0 | 0.0 | 0.0 | 0.00 | 0.00 | 0.00 | 87 | 1012.5 |
| 20260831130114 | 50 | 0 | 0.0 | 0.0 | 0.00 | 0.00 | 0.00 | 87 | 1012.6 |
| 20260831125539 | 50 | 0 | 0.0 | 0.0 | 0.00 | 0.00 | 0.00 | 87 | 1012.5 |
| 20260831125039 | 50 | 0 | 0.0 | 0.0 | 0.00 | 0.00 | 0.00 | 87 | 1012.7 |
| 20260831124604 | 50 | 0 | 0.0 | 0.0 | 0.00 | 0.00 | 0.00 | 87 | 1012.7 |
| 20260831124038 | 50 | 0 | 0.0 | 0.0 | 0.00 | 0.00 | 0.00 | 87 | 1012.7 |
| 20260831123539 | 50 | 0 | 0.0 | 0.0 | 0.00 | 0.00 | 0.00 | 87 | 1012.7 |
| 20260831123056 | 50 | 0 | 0.0 | 0.0 | 0.00 | 0.00 | 0.00 | 87 | 1012.8 |
| 20260831122540 | 50 | 0 | 0.0 | 0.0 | 0.00 | 0.00 | 0.00 | 87 | 1012.7 |
| 20260831122039 | 50 | 0 | 0.0 | 0.0 | 0.00 | 0.00 | 0.00 | 87 | 1012.8 |
| 20260831121600 | 50 | 0 | 0.0 | 0.0 | 0.00 | 0.00 | 0.00 | 87 | 1012.8 |
| 20260831121040 | 50 | 0 | 0.0 | 0.0 | 0.00 | 0.00 | 0.00 | 87 | 1012.8 |
| 20260831120539 | 51 | 0 | 0.0 | 0.0 | 0.00 | 0.00 | 0.00 | 87 | 1012.9 |
| 20260831120146 | 51 | 0 | 0.0 | 0.0 | 0.00 | 0.00 | 0.00 | 87 | 1012.8 |
| 20260831115542 | 51 | 0 | 0.0 | 0.0 | 0.00 | 0.00 | 0.00 | 87 | 1012.9 |
| 20260831115042 | 51 | 0 | 0.0 | 0.0 | 0.00 | 0.00 | 0.00 | 87 | 1012.9 |
| 20260831114603 | 51 | 0 | 0.0 | 0.0 | 0.00 | 0.00 | 0.00 | 86 | 1012.9 |
| 20260831114038 | 51 | 0 | 0.0 | 0.0 | 0.00 | 0.00 | 0.00 | 86 | 1012.9 |
| 20260831113539 | 51 | 0 | 0.0 | 0.0 | 0.00 | 0.00 | 0.00 | 86 | 1013.0 |
| 20260831113105 | 51 | 0 | 0.0 | 0.0 | 0.00 | 0.00 | 0.00 | 86 | 1013.1 |
| 20260831112539 | 51 | 0 | 0.0 | 0.0 | 0.00 | 0.00 | 0.00 | 86 | 1013.1 |
| 20260831112039 | 51 | 0 | 0.0 | 0.0 | 0.00 | 0.00 | 0.00 | 85 | 1013.1 |
| 20260831111601 | 51 | 0 | 0.0 | 0.0 | 0.00 | 0.00 | 0.00 | 85 | 1013.2 |
| 20260831111038 | 51 | 0 | 0.0 | 0.0 | 0.00 | 0.00 | 0.00 | 85 | 1013.2 |
| 20260831110539 | 51 | 0 | 0.0 | 0.0 | 0.00 | 0.00 | 0.00 | 85 | 1013.3 |
| 20260831110107 | 51 | 0 | 0.0 | 0.0 | 0.00 | 0.00 | 0.00 | 85 | 1013.2 |
| 20260831105538 | 52 | 0 | 0.0 | 0.0 | 0.00 | 0.00 | 0.00 | 86 | 1013.3 |
| 20260831105040 | 52 | 0 | 0.0 | 0.0 | 0.00 | 0.00 | 0.00 | 86 | 1013.2 |
| 20260831104551 | 52 | 0 | 0.0 | 0.0 | 0.00 | 0.00 | 0.00 | 85 | 1013.3 |
| 20260831104040 | 52 | 0 | 0.0 | 0.0 | 0.00 | 0.00 | 0.00 | 85 | 1013.3 |
| 20260831103541 | 52 | 0 | 0.0 | 0.0 | 0.00 | 0.00 | 0.00 | 85 | 1013.4 |
| 20260831103058 | 52 | 0 | 0.0 | 0.0 | 0.00 | 0.00 | 0.00 | 85 | 1013.4 |
| 20260831102538 | 52 | 0 | 0.0 | 0.0 | 0.00 | 0.00 | 0.00 | 85 | 1013.4 |
| 20260831102038 | 52 | 0 | 0.0 | 0.0 | 0.00 | 0.00 | 0.00 | 85 | 1013.5 |
| 20260831101606 | 52 | 0 | 0.0 | 0.0 | 0.00 | 0.00 | 0.00 | 84 | 1013.5 |
| 20260831101040 | 52 | 0 | 0.0 | 0.0 | 0.00 | 0.00 | 0.00 | 84 | 1013.5 |
| 20260831100538 | 53 | 0 | 0.0 | 0.0 | 0.00 | 0.00 | 0.00 | 84 | 1013.5 |
| 20260831100108 | 53 | 0 | 0.0 | 0.0 | 0.00 | 0.00 | 0.00 | 84 | 1013.5 |
| 20260831095538 | 53 | 0 | 0.0 | 0.0 | 0.00 | 0.00 | 0.00 | 85 | 1013.6 |
| 20260831095038 | 53 | 0 | 0.0 | 0.0 | 0.00 | 0.00 | 0.00 | 85 | 1013.6 |
| 20260831094605 | 53 | 0 | 0.0 | 0.0 | 0.00 | 0.00 | 0.00 | 84 | 1013.6 |
| 20260831094042 | 53 | 0 | 0.0 | 0.0 | 0.00 | 0.00 | 0.00 | 84 | 1013.7 |
| 20260831093541 | 53 | 0 | 0.0 | 0.0 | 0.00 | 0.00 | 0.00 | 84 | 1013.8 |
| 20260831093101 | 53 | 0 | 0.0 | 0.0 | 0.00 | 0.00 | 0.00 | 84 | 1013.9 |
| 20260831092540 | 53 | 0 | 0.0 | 0.0 | 0.00 | 0.00 | 0.00 | 83 | 1013.9 |
| 20260831092042 | 53 | 0 | 0.0 | 0.0 | 0.00 | 0.00 | 0.00 | 84 | 1013.9 |
| 20260831091603 | 54 | 0 | 0.0 | 0.0 | 0.00 | 0.00 | 0.00 | 83 | 1013.9 |
| 20260831091040 | 54 | 0 | 0.0 | 0.0 | 0.00 | 0.00 | 0.00 | 83 | 1014.0 |
| 20260831090537 | 54 | 0 | 0.0 | 0.0 | 0.00 | 0.00 | 0.00 | 83 | 1014.0 |
| 20260831090124 | 54 | 0 | 0.0 | 0.0 | 0.00 | 0.00 | 0.00 | 83 | 1014.0 |
| 20260831085540 | 54 | 0 | 0.0 | 0.0 | 0.00 | 0.00 | 0.00 | 84 | 1014.1 |
| 20260831085037 | 54 | 0 | 0.0 | 0.0 | 0.00 | 0.00 | 0.00 | 83 | 1014.1 |
| 20260831084559 | 54 | 0 | 0.0 | 0.0 | 0.00 | 0.00 | 0.00 | 83 | 1014.0 |
| 20260831084039 | 55 | 0 | 0.0 | 0.0 | 0.00 | 0.00 | 0.00 | 83 | 1014.0 |
| 20260831083539 | 55 | 0 | 0.0 | 0.0 | 0.00 | 0.00 | 0.00 | 83 | 1014.1 |
| 20260831083059 | 55 | 0 | 0.0 | 0.0 | 0.00 | 0.00 | 0.00 | 83 | 1014.2 |
| 20260831082541 | 55 | 0 | 0.0 | 0.0 | 0.00 | 0.00 | 0.00 | 82 | 1014.2 |
| 20260831082038 | 55 | 0 | 0.0 | 0.0 | 0.00 | 0.00 | 0.00 | 82 | 1014.3 |
| 20260831081600 | 55 | 0 | 0.0 | 0.0 | 0.00 | 0.00 | 0.00 | 82 | 1014.5 |
| 20260831081037 | 55 | 0 | 0.0 | 0.0 | 0.00 | 0.00 | 0.00 | 81 | 1014.5 |
| 20260831080541 | 56 | 0 | 0.0 | 0.0 | 0.00 | 0.00 | 0.00 | 81 | 1014.6 |
| 20260831080105 | 56 | 0 | 0.0 | 0.0 | 0.00 | 0.00 | 0.00 | 82 | 1014.5 |
| 20260831075539 | 56 | 0 | 0.0 | 0.0 | 0.00 | 0.00 | 0.00 | 82 | 1014.6 |
| 20260831075040 | 56 | 0 | 0.0 | 0.0 | 0.00 | 0.00 | 0.00 | 81 | 1014.6 |
| 20260831074600 | 56 | 0 | 0.0 | 0.0 | 0.00 | 0.00 | 0.00 | 81 | 1014.5 |
| 20260831074039 | 56 | 0 | 0.0 | 0.0 | 0.00 | 0.00 | 0.00 | 81 | 1014.6 |
| 20260831073543 | 56 | 0 | 0.0 | 0.0 | 0.00 | 0.00 | 0.00 | 81 | 1014.7 |
| 20260831073114 | 57 | 0 | 0.0 | 0.0 | 0.00 | 0.00 | 0.00 | 80 | 1014.7 |
| 20260831072539 | 57 | 0 | 0.0 | 0.0 | 0.00 | 0.00 | 0.00 | 80 | 1014.8 |
| 20260831072038 | 57 | 0 | 0.0 | 0.0 | 0.00 | 0.00 | 0.00 | 80 | 1014.9 |
| 20260831071552 | 57 | 0 | 0.0 | 0.0 | 0.00 | 0.00 | 0.00 | 81 | 1014.9 |
| 20260831071039 | 57 | 0 | 0.0 | 0.0 | 0.00 | 0.00 | 0.00 | 80 | 1014.9 |
| 20260831070539 | 57 | 0 | 0.0 | 0.0 | 0.00 | 0.00 | 0.00 | 80 | 1015.0 |
| 20260831070137 | 57 | 0 | 0.0 | 0.0 | 0.00 | 0.00 | 0.00 | 80 | 1015.1 |
| 20260831065539 | 58 | 0 | 0.0 | 0.0 | 0.00 | 0.00 | 0.00 | 80 | 1015.1 |
| 20260831065039 | 58 | 0 | 0.0 | 0.0 | 0.00 | 0.00 | 0.00 | 80 | 1015.2 |
| 20260831064620 | 58 | 0 | 0.0 | 0.0 | 0.00 | 0.00 | 0.00 | 80 | 1015.2 |
| 20260831064039 | 58 | 0 | 0.0 | 0.0 | 0.00 | 0.00 | 0.00 | 79 | 1015.2 |
| 20260831063537 | 58 | 0 | 0.0 | 0.0 | 0.00 | 0.00 | 0.00 | 79 | 1015.4 |
| 20260831063100 | 58 | 0 | 0.0 | 0.0 | 0.00 | 0.00 | 0.00 | 79 | 1015.3 |
| 20260831062539 | 58 | 0 | 0.0 | 0.0 | 0.00 | 0.00 | 0.00 | 79 | 1015.3 |
| 20260831062039 | 58 | 0 | 0.0 | 0.0 | 0.00 | 0.00 | 0.00 | 79 | 1015.3 |
| 20260831061554 | 58 | 0 | 0.0 | 0.0 | 0.00 | 0.00 | 0.00 | 78 | 1015.3 |
| 20260831061040 | 58 | 0 | 0.0 | 0.0 | 0.00 | 0.00 | 0.00 | 78 | 1015.4 |
| 20260831060540 | 59 | 0 | 0.0 | 0.0 | 0.00 | 0.00 | 0.00 | 78 | 1015.3 |
| 20260831060112 | 59 | 0 | 0.0 | 0.0 | 0.00 | 0.00 | 0.00 | 78 | 1015.5 |
| 20260831055541 | 59 | 0 | 0.0 | 0.0 | 0.00 | 0.00 | 0.00 | 77 | 1015.5 |
| 20260831055041 | 59 | 0 | 0.0 | 0.0 | 0.00 | 0.00 | 0.00 | 77 | 1015.5 |
| 20260831054559 | 59 | 0 | 0.0 | 0.0 | 0.00 | 0.00 | 0.00 | 77 | 1015.5 |
| 20260831054039 | 59 | 0 | 0.0 | 0.0 | 0.00 | 0.00 | 0.00 | 76 | 1015.5 |
| 20260831053543 | 59 | 0 | 0.0 | 0.0 | 0.00 | 0.00 | 0.00 | 76 | 1015.7 |
| 20260831053108 | 59 | 0 | 0.0 | 0.0 | 0.00 | 0.00 | 0.00 | 76 | 1015.7 |
| 20260831052540 | 60 | 0 | 0.0 | 0.0 | 0.00 | 0.00 | 0.00 | 75 | 1015.6 |
| 20260831052039 | 60 | 0 | 0.0 | 0.0 | 0.00 | 0.00 | 0.00 | 75 | 1015.7 |
| 20260831051619 | 60 | 0 | 0.0 | 0.0 | 0.00 | 0.00 | 0.00 | 75 | 1015.8 |
| 20260831051037 | 60 | 0 | 0.0 | 0.0 | 0.00 | 0.00 | 0.00 | 74 | 1015.8 |
| 20260831050541 | 60 | 0 | 0.0 | 0.0 | 0.00 | 0.00 | 0.00 | 74 | 1015.9 |
| 20260831050057 | 60 | 0 | 0.0 | 0.0 | 0.00 | 0.00 | 0.00 | 74 | 1015.9 |
| 20260831045542 | 60 | 0 | 0.0 | 0.0 | 0.00 | 0.00 | 0.00 | 74 | 1015.9 |
| 20260831045042 | 61 | 0 | 0.0 | 0.0 | 0.00 | 0.00 | 0.00 | 74 | 1015.9 |
| 20260831044555 | 61 | 0 | 0.0 | 0.0 | 0.00 | 0.00 | 0.00 | 73 | 1015.9 |
| 20260831044042 | 61 | 0 | 0.0 | 0.0 | 0.00 | 0.00 | 0.00 | 73 | 1016.0 |
| 20260831043542 | 61 | 0 | 0.0 | 0.0 | 0.00 | 0.00 | 0.00 | 73 | 1016.0 |
| 20260831043101 | 61 | 0 | 0.0 | 0.0 | 0.00 | 0.00 | 0.00 | 72 | 1016.0 |
| 20260831042540 | 61 | 0 | 0.0 | 0.0 | 0.00 | 0.00 | 0.00 | 72 | 1016.0 |
| 20260831042038 | 62 | 0 | 0.0 | 0.0 | 0.00 | 0.00 | 0.00 | 71 | 1016.1 |
| 20260831041554 | 62 | 0 | 0.0 | 0.0 | 0.00 | 0.00 | 0.00 | 71 | 1016.1 |
| 20260831041040 | 62 | 0 | 0.0 | 0.0 | 0.00 | 0.00 | 0.00 | 70 | 1016.1 |
| 20260831040543 | 62 | 0 | 0.0 | 0.0 | 0.00 | 0.00 | 0.00 | 70 | 1016.2 |
| 20260831040056 | 62 | 0 | 0.0 | 0.0 | 0.00 | 0.00 | 0.00 | 70 | 1016.2 |
| 20260831035541 | 62 | 0 | 0.0 | 0.0 | 0.00 | 0.00 | 0.00 | 69 | 1016.3 |
| 20260831035041 | 63 | 0 | 0.0 | 0.0 | 0.00 | 0.00 | 0.00 | 69 | 1016.3 |
| 20260831034559 | 63 | 0 | 0.0 | 0.0 | 0.00 | 0.00 | 0.00 | 68 | 1016.2 |
| 20260831034044 | 63 | 0 | 0.0 | 0.0 | 0.00 | 0.00 | 0.00 | 68 | 1016.2 |
| 20260831033541 | 63 | 0 | 0.0 | 0.0 | 0.00 | 0.00 | 0.00 | 67 | 1016.3 |
| 20260831033101 | 63 | 0 | 0.0 | 0.0 | 0.00 | 0.00 | 0.00 | 67 | 1016.3 |
| 20260831032540 | 64 | 0 | 0.0 | 0.0 | 0.00 | 0.00 | 0.00 | 66 | 1016.3 |
| 20260831032046 | 64 | 0 | 0.0 | 0.0 | 0.00 | 0.00 | 0.00 | 66 | 1016.3 |